Wetbulb
63.44 64.94 65.25 64.99 65.33 65.74 65.28 65.37 64.61 61.87 59.61 56.95 55.67 54.88 54.48 54.05 54.12 54.62 55.82 60.65 65.27 68.34 69.11 68.95 69.01 68.92 68.67 68.49 68.08 67.79 67.40 66.95 65.99 65.08 64.50 63.93 63.18 62.62 62.35 62.40 62.52 62.58 62.58
63.16 63.30 63.69 64.77 64.67 65.51 64.56 64.45 63.72 61.58 59.79 57.23 56.24 56.01 55.92 56.01 54.82 54.35 54.40 56.33 61.93 65.86 68.07 68.52 68.52 68.76 68.80 68.66 68.78 68.86 68.84 68.62 68.12 67.30 66.09 65.42 64.91 64.52 64.26 64.21 64.08 63.92 63.80
63.69 63.52 63.55 63.42 63.36 64.98 64.68 63.64 63.08 61.04 59.15 57.81 55.92 55.80 55.87 55.22 55.49 54.95 54.62 54.82 56.79 62.43 64.68 66.85 68.33 68.61 68.75 68.76 68.73 68.81 69.42 68.88 68.76 68.25 67.79 66.89 66.10 65.73 65.58 65.55 65.46 65.13 65.01
63.59 63.13 63.35 63.53 64.09 64.23 64.38 63.30 62.65 61.30 59.16 58.30 56.28 55.39 55.44 55.25 55.09 54.95 54.97 55.47 55.57 57.30 60.98 64.81 66.95 68.79 69.03 68.59 68.73 68.80 68.45 68.60 68.67 68.64 68.17 67.74 67.01 66.40 65.81 64.49 64.65 64.16 64.34
64.27 63.82 63.69 63.40 64.29 64.16 64.03 63.45 61.94 61.49 58.94 58.54 56.20 55.88 55.38 55.13 55.64 57.66 56.80 57.32 56.37 56.89 57.52 60.73 63.19 64.61 66.59 68.01 68.26 68.27 67.39 67.76 68.41 68.44 68.26 67.86 66.90 65.91 64.03 63.72 63.88 63.48 63.13
64.53 63.89 62.39 62.57 62.73 61.15 62.17 62.74 62.40 60.06 59.91 59.50 57.99 57.14 55.60 56.08 56.36 56.86 57.87 59.41 59.30 57.70 57.66 58.05 58.93 60.74 63.18 65.88 66.76 66.63 66.82 66.85 67.20 67.86 67.85 67.02 65.82 64.25 63.79 63.41 62.60 62.34 62.12
62.39 63.55 63.25 61.60 62.54 60.56 60.40 61.51 61.57 60.38 57.51 57.16 55.26 55.41 56.40 56.78 57.22 57.99 58.90 59.10 59.46 59.92 59.55 58.66 58.94 59.60 60.67 63.84 65.31 65.64 65.88 66.56 66.98 67.14 67.97 66.43 64.96 64.04 63.34 62.87 61.51 60.96 60.82
61.93 61.93 63.09 62.95 62.68 61.85 61.41 61.09 60.99 59.59 59.42 57.89 55.08 54.79 52.68 54.91 57.03 58.44 58.86 59.38 59.37 59.50 59.22 59.42 59.31 59.30 59.81 60.46 60.11 63.86 64.56 65.49 66.45 66.91 66.79 65.82 64.62 63.66 63.36 61.71 60.62 60.29 60.26
62.81 62.56 62.81 62.74 62.13 62.03 61.16 61.05 60.67 60.05 57.81 57.18 58.01 55.17 52.14 51.20 53.51 56.60 57.29 58.73 58.38 57.62 58.22 58.72 58.66 58.52 58.41 57.99 59.34 59.70 61.16 62.51 65.60 66.75 66.54 65.49 64.18 63.65 62.59 61.09 60.22 60.03 59.97
62.24 62.76 62.26 62.31 62.08 61.44 61.19 60.93 60.54 59.88 58.60 56.24 55.98 57.17 56.67 55.91 53.49 52.45 54.86 54.91 56.11 56.28 56.94 57.06 57.63 57.81 57.26 56.74 56.69 56.46 58.69 60.43 63.01 66.30 65.64 65.17 64.54 63.55 62.48 61.19 60.22 59.09 59.90
60.88 61.64 62.49 62.27 61.64 61.32 60.91 60.91 60.08 59.35 59.41 58.75 57.04 56.31 55.82 55.83 55.65 53.75 52.29 53.11 54.13 54.05 55.20 55.95 56.70 57.60 57.31 57.04 56.02 56.32 58.36 60.42 62.10 63.96 65.58 65.54 64.87 64.09 62.57 60.56 59.36 58.69 58.65
59.99 60.94 61.72 62.12 62.24 61.95 61.31 60.78 60.43 59.80 59.43 59.24 58.21 57.57 56.86 56.46 55.73 54.04 52.33 52.55 52.83 53.80 54.16 55.55 56.13 56.61 56.58 55.07 55.20 55.60 57.28 59.27 61.17 62.51 63.51 63.74 64.53 63.41 61.39 59.34 58.51 57.88 57.33
59.66 60.06 60.81 60.75 60.87 61.29 61.22 60.81 60.03 59.71 59.16 58.73 58.36 57.93 57.80 57.71 57.04 56.68 55.47 53.89 53.11 54.53 53.71 53.55 54.34 54.78 54.92 53.94 53.90 54.75 56.66 59.23 61.07 61.57 62.55 63.61 62.51 59.83 58.48 57.65 57.14 56.81 56.57
59.14 60.52 60.82 61.05 61.09 61.41 61.24 60.73 60.07 59.99 59.95 59.89 59.81 59.58 59.37 58.98 58.39 57.65 56.75 55.53 52.79 51.86 50.65 51.16 51.11 53.35 53.81 53.49 54.25 54.53 55.53 57.12 58.95 60.77 60.95 60.83 57.91 56.42 55.76 55.77 55.14 54.69 54.18
53.77 55.47 58.91 59.32 59.73 60.74 60.93 60.72 60.02 59.09 59.47 59.26 59.27 59.24 59.10 59.08 58.91 59.05 58.53 58.11 56.04 52.71 53.08 49.36 49.54 51.39 51.82 52.87 53.44 53.15 53.27 55.81 57.78 58.65 57.52 55.38 53.72 53.40 53.72 53.56 53.30 52.57 51.31
50.84 51.41 52.57 54.64 56.77 58.29 59.28 59.54 59.30 59.38 58.90 58.81 58.82 58.43 58.82 59.23 59.07 58.97 58.63 58.31 57.92 56.21 53.54 51.73 49.83 49.77 51.50 51.15 51.97 50.94 50.96 52.81 54.71 54.55 53.25 51.88 51.47 51.63 51.79 51.56 51.18 50.35 48.83
47.40 48.27 49.32 50.76 52.09 53.62 55.36 57.63 58.74 58.77 58.48 58.28 58.34 58.25 58.23 58.90 58.71 58.30 58.05 57.76 56.87 56.35 54.02 46.67 47.69 47.96 48.52 49.44 48.55 48.46 49.37 48.82 50.82 52.93 51.99 51.06 50.54 50.25 50.03 49.76 49.02 48.12 46.89
44.38 44.78 45.88 46.77 47.62 48.66 50.05 51.77 52.71 55.34 58.04 57.68 57.88 57.67 57.58 57.88 57.71 58.06 57.44 56.60 56.08 55.49 51.98 45.97 45.24 45.78 46.76 49.02 47.96 47.20 46.69 46.60 46.64 50.60 50.84 50.33 49.81 49.48 49.29 48.54 47.24 46.23 45.06
41.83 42.39 42.99 43.07 44.02 45.05 46.27 47.27 48.27 49.31 51.69 52.93 56.37 57.30 57.45 57.30 56.63 56.74 56.37 55.56 54.37 52.46 51.70 47.11 44.19 45.24 44.70 46.80 45.77 45.51 44.94 43.58 43.90 47.30 49.45 49.36 49.26 48.82 48.91 48.01 46.31 44.94 43.50
39.36 40.21 40.83 40.98 41.62 42.44 44.39 44.95 45.73 45.87 46.34 47.80 50.16 52.49 53.97 56.10 56.76 56.44 56.06 55.79 54.98 53.09 51.81 48.69 44.56 44.61 43.38 44.99 45.63 43.48 41.59 41.65 40.43 41.52 45.15 46.24 48.12 48.33 48.59 48.44 46.16 43.57 41.76
36.84 38.02 38.50 38.88 39.79 40.45 42.23 43.76 44.22 44.63 44.49 44.98 46.24 48.27 50.79 50.88 49.17 51.56 54.88 55.22 54.80 53.79 52.13 50.00 43.74 42.07 42.58 42.53 43.36 43.26 42.94 41.31 41.16 39.03 38.26 40.23 42.20 42.49 44.19 46.23 44.55 42.19 41.39
34.16 35.02 34.98 36.24 37.57 39.50 41.84 42.21 43.40 42.67 43.40 43.65 43.75 45.12 46.45 47.04 48.74 50.17 50.58 50.49 52.93 53.05 50.68 49.58 46.68 44.82 43.72 44.56 44.42 42.31 38.77 37.44 36.90 40.60 38.68 37.39 39.63 38.46 39.45 40.16 42.76 42.24 41.03
32.32 32.17 32.89 34.10 35.48 36.54 40.34 40.99 41.10 41.42 41.60 42.04 41.76 42.22 43.19 44.94 45.57 46.70 48.29 49.23 49.86 50.54 51.24 50.38 48.69 47.70 44.92 44.62 43.62 40.89 37.99 37.24 37.27 35.56 36.80 35.70 35.36 35.77 35.28 38.32 43.13 42.41 40.85
30.33 30.34 31.11 32.54 33.46 34.52 38.53 39.35 40.56 38.74 40.02 40.56 39.60 40.46 41.65 42.69 43.86 44.62 44.82 44.78 46.53 48.62 49.71 49.58 50.27 49.64 48.28 45.40 43.91 43.87 41.83 38.49 33.88 35.25 35.71 34.27 31.03 32.34 31.24 32.39 42.11 42.24 40.45
28.76 28.94 30.66 31.04 30.40 31.27 36.64 37.99 37.73 35.85 37.36 38.14 39.67 40.51 40.62 41.02 43.84 45.42 44.04 42.39 43.41 44.20 45.58 47.70 47.63 47.20 46.44 46.27 45.25 40.79 37.54 37.37 33.12 32.95 34.09 33.26 28.69 28.33 28.70 28.25 30.19 40.08 39.64
28.26 29.00 29.14 29.63 32.19 30.17 34.72 37.05 36.22 33.86 33.72 35.96 39.00 39.40 41.99 42.04 44.25 44.80 43.16 42.94 41.13 41.55 40.52 40.86 42.65 45.14 45.88 45.49 44.40 44.02 39.29 38.04 32.51 31.71 32.59 31.97 27.33 27.70 26.33 26.69 27.79 29.44 32.35
MSLP
1014.78 1014.86 1015.02 1015.39 1015.56 1015.80 1016.24 1016.82 1017.18 1017.60 1017.88 1018.09 1018.32 1018.42 1018.52 1018.61 1018.72 1018.86 1018.93 1018.89 1018.86 1018.86 1018.82 1018.91 1018.98 1019.09 1019.15 1019.23 1019.33 1019.33 1019.53 1019.67 1019.84 1019.87 1019.94 1020.10 1020.15 1020.26 1020.30 1020.33 1020.34 1020.29 1020.30
1014.68 1015.00 1015.14 1015.20 1015.23 1015.75 1016.02 1016.38 1016.89 1017.45 1017.91 1018.07 1018.22 1018.30 1018.29 1018.31 1018.39 1018.46 1018.53 1018.59 1018.59 1018.59 1018.65 1018.72 1018.73 1018.76 1018.85 1018.90 1018.88 1019.05 1019.02 1019.19 1019.38 1019.50 1019.67 1019.86 1019.97 1020.02 1020.08 1020.17 1020.21 1020.18 1020.14
1014.28 1014.72 1015.09 1015.53 1015.49 1015.38 1015.83 1016.18 1016.58 1017.08 1017.77 1018.18 1018.17 1018.10 1018.02 1017.98 1018.00 1018.03 1018.11 1018.24 1018.24 1018.27 1018.35 1018.41 1018.51 1018.47 1018.50 1018.66 1018.53 1018.58 1018.66 1018.79 1018.91 1019.04 1019.21 1019.47 1019.59 1019.77 1019.85 1019.94 1019.96 1020.06 1020.07
1014.10 1014.52 1014.82 1014.99 1015.22 1015.65 1015.68 1015.71 1016.50 1016.74 1017.18 1017.82 1018.10 1017.78 1017.80 1017.67 1017.54 1017.54 1017.58 1017.73 1017.85 1017.93 1018.02 1018.16 1018.13 1018.28 1018.30 1018.39 1018.42 1018.36 1018.43 1018.38 1018.48 1018.62 1018.80 1019.03 1019.35 1019.52 1019.66 1019.79 1019.86 1019.94 1019.89
1013.77 1013.98 1014.41 1014.56 1014.76 1015.14 1015.58 1015.97 1016.25 1016.72 1016.62 1017.37 1017.93 1017.66 1017.45 1017.41 1017.24 1017.03 1017.13 1017.17 1017.27 1017.37 1017.52 1017.59 1017.73 1018.01 1018.07 1018.14 1018.29 1018.39 1018.41 1018.35 1018.19 1018.40 1018.56 1018.69 1018.98 1019.33 1019.53 1019.68 1019.79 1019.84 1019.93
1013.29 1013.65 1014.08 1014.37 1014.55 1015.13 1015.40 1015.55 1016.01 1016.41 1016.36 1016.75 1017.39 1017.30 1017.08 1016.93 1016.68 1016.80 1016.71 1016.64 1016.68 1016.73 1016.86 1017.12 1017.31 1017.51 1017.61 1017.69 1018.02 1018.02 1018.21 1018.41 1018.05 1017.90 1018.33 1018.65 1018.88 1019.18 1019.48 1019.72 1019.83 1019.84 1019.87
1013.04 1013.29 1013.86 1014.25 1014.30 1014.86 1014.94 1015.22 1015.39 1015.99 1016.39 1016.63 1017.18 1017.18 1016.72 1016.51 1016.33 1016.13 1016.12 1016.20 1016.24 1016.25 1016.42 1016.58 1016.79 1017.08 1017.23 1017.39 1017.58 1017.69 1017.83 1017.98 1017.99 1017.67 1017.88 1018.48 1018.82 1019.12 1019.32 1019.69 1019.88 1019.87 1019.80
1012.54 1012.96 1013.25 1013.82 1013.93 1014.30 1014.56 1014.46 1014.88 1015.35 1015.49 1015.95 1016.37 1016.99 1016.75 1016.16 1015.76 1015.34 1015.52 1015.73 1015.66 1015.59 1015.87 1016.04 1016.24 1016.47 1016.76 1016.93 1017.16 1017.35 1017.66 1017.59 1017.72 1017.60 1017.83 1018.33 1018.69 1018.96 1019.18 1019.57 1019.73 1019.68 1019.64
1012.04 1012.32 1012.54 1012.90 1013.34 1013.64 1013.60 1014.02 1014.29 1014.63 1014.62 1014.63 1015.06 1015.46 1016.10 1015.90 1015.65 1014.88 1014.95 1015.13 1015.15 1015.25 1015.32 1015.52 1015.78 1016.09 1016.47 1016.74 1016.87 1017.26 1017.33 1017.58 1017.36 1017.20 1017.63 1018.14 1018.55 1018.83 1019.04 1019.37 1019.58 1019.58 1019.57
1011.68 1011.98 1012.05 1012.25 1012.59 1013.04 1013.28 1013.35 1013.42 1013.62 1013.91 1014.11 1014.88 1014.74 1014.47 1015.03 1015.30 1015.34 1015.22 1015.00 1014.87 1014.93 1014.78 1015.07 1015.15 1015.59 1016.05 1016.34 1016.71 1016.89 1016.69 1017.43 1017.29 1016.99 1017.19 1017.83 1018.28 1018.48 1018.83 1019.11 1019.29 1019.49 1019.67
1011.49 1011.56 1011.52 1011.95 1012.18 1012.26 1012.40 1012.56 1012.84 1012.95 1012.96 1013.11 1013.41 1014.08 1014.65 1014.85 1014.98 1015.40 1015.19 1014.96 1014.99 1014.63 1014.75 1014.74 1014.83 1015.19 1015.58 1015.87 1016.33 1016.40 1016.80 1016.44 1016.77 1017.19 1016.96 1017.15 1017.70 1017.99 1018.43 1018.96 1019.06 1019.33 1019.53
1011.07 1011.06 1011.02 1011.09 1011.44 1011.60 1011.41 1011.23 1011.54 1011.99 1012.33 1012.38 1012.73 1013.27 1013.30 1013.88 1014.37 1014.74 1015.04 1014.69 1014.61 1014.53 1014.54 1014.70 1014.73 1014.86 1015.32 1015.70 1016.06 1016.16 1016.42 1016.47 1016.60 1016.78 1016.64 1016.89 1017.11 1017.72 1018.28 1018.87 1019.07 1019.21 1019.39
1010.68 1010.46 1010.61 1010.50 1010.58 1010.65 1010.66 1010.39 1010.49 1010.94 1011.43 1011.78 1012.23 1012.56 1012.74 1012.89 1013.34 1013.47 1013.97 1014.30 1014.31 1014.37 1014.61 1014.54 1014.43 1014.30 1014.50 1015.37 1015.70 1016.18 1016.26 1016.24 1016.46 1016.47 1016.58 1016.57 1017.28 1017.98 1018.46 1018.85 1019.12 1019.06 1019.30
1010.83 1010.25 1009.98 1009.94 1009.75 1009.91 1010.00 1010.06 1009.72 1010.16 1010.54 1011.12 1011.53 1011.67 1011.98 1012.41 1012.82 1012.90 1013.29 1013.57 1014.10 1014.40 1014.40 1014.20 1014.22 1013.73 1013.86 1014.44 1015.16 1015.74 1015.90 1015.96 1016.26 1016.37 1016.48 1016.89 1017.62 1017.99 1018.49 1018.85 1019.12 1019.28 1019.40
1011.27 1010.78 1010.30 1010.17 1009.62 1009.10 1009.28 1009.36 1009.18 1009.32 1009.81 1010.44 1010.94 1011.17 1011.32 1011.85 1012.26 1012.49 1012.23 1012.74 1013.07 1013.30 1013.35 1013.69 1013.88 1013.53 1013.66 1014.14 1014.86 1015.33 1015.65 1015.97 1016.31 1016.65 1016.90 1017.39 1017.50 1017.85 1018.22 1018.85 1019.11 1019.04 1019.58
1011.82 1011.64 1011.12 1010.87 1010.06 1009.83 1009.41 1009.14 1008.78 1008.67 1009.10 1009.55 1009.77 1010.38 1010.58 1011.09 1011.13 1011.43 1011.57 1011.69 1012.14 1012.46 1012.24 1012.67 1013.13 1013.28 1013.26 1013.93 1014.43 1015.14 1015.43 1015.99 1016.50 1017.10 1017.36 1017.50 1017.43 1017.67 1018.00 1018.37 1018.66 1019.12 1019.63
1012.28 1011.87 1011.87 1011.46 1010.91 1010.58 1010.02 1009.46 1009.12 1008.87 1008.77 1008.62 1009.00 1009.40 1009.45 1009.65 1010.19 1010.58 1010.60 1010.89 1011.12 1011.48 1011.65 1012.97 1012.68 1013.17 1013.38 1013.61 1014.14 1014.99 1015.31 1016.03 1016.60 1017.10 1017.21 1017.47 1017.44 1017.57 1017.90 1018.16 1018.69 1018.96 1019.30
1013.37 1012.91 1012.44 1012.17 1011.80 1011.37 1011.01 1010.47 1009.72 1009.42 1008.68 1008.66 1008.70 1008.75 1008.83 1009.03 1009.33 1009.54 1009.57 1009.84 1010.09 1010.60 1011.07 1011.92 1012.51 1012.93 1013.12 1013.41 1013.90 1014.65 1015.32 1015.73 1016.52 1016.61 1016.97 1017.10 1017.23 1017.45 1017.68 1017.93 1018.37 1019.05 1019.23
1014.27 1013.81 1013.36 1012.83 1012.48 1012.17 1011.37 1010.94 1010.67 1010.16 1009.55 1009.26 1008.55 1008.48 1008.29 1008.48 1008.61 1008.78 1008.63 1009.11 1009.30 1009.74 1010.18 1011.01 1011.96 1012.59 1012.94 1013.24 1014.02 1014.65 1015.25 1015.90 1016.28 1016.70 1016.72 1016.91 1017.03 1017.32 1017.34 1017.57 1018.11 1018.74 1019.04
1014.74 1014.21 1014.02 1013.55 1013.02 1012.55 1011.76 1011.31 1011.03 1010.62 1010.13 1009.69 1009.31 1008.75 1008.49 1008.03 1007.51 1007.55 1008.01 1008.16 1008.32 1008.48 1009.41 1010.22 1011.10 1011.82 1012.41 1013.13 1013.66 1014.33 1015.29 1015.70 1016.43 1016.81 1016.94 1016.83 1016.70 1016.77 1017.13 1017.48 1017.94 1018.50 1018.81
1014.97 1014.40 1013.94 1013.51 1013.02 1012.92 1012.33 1011.58 1011.35 1011.03 1010.55 1009.96 1009.46 1009.12 1008.77 1008.48 1008.20 1008.07 1007.74 1007.58 1007.83 1008.06 1008.05 1009.03 1010.14 1010.96 1011.62 1012.08 1012.42 1013.21 1014.48 1015.14 1015.71 1016.13 1016.55 1016.43 1016.47 1016.77 1016.73 1017.26 1017.56 1018.09 1018.22
1015.55 1015.13 1014.57 1014.23 1013.80 1013.05 1012.50 1011.81 1011.53 1011.41 1010.97 1010.40 1009.62 1009.12 1008.98 1008.59 1008.20 1007.92 1007.66 1007.52 1007.31 1007.27 1007.55 1007.94 1008.61 1009.26 1010.05 1010.86 1011.77 1012.08 1013.52 1014.61 1015.72 1015.30 1015.65 1016.01 1016.43 1016.57 1016.77 1017.39 1017.54 1017.80 1018.05
1015.52 1015.07 1014.53 1014.00 1013.69 1013.12 1012.50 1012.15 1011.75 1011.30 1010.90 1010.34 1009.87 1009.36 1008.86 1008.38 1008.21 1007.72 1007.43 1007.21 1006.98 1006.88 1006.64 1006.91 1007.29 1007.66 1008.72 1008.88 1009.81 1011.14 1012.20 1013.32 1013.97 1014.46 1014.88 1015.78 1016.36 1016.70 1016.72 1017.19 1016.97 1017.36 1017.82
1015.84 1015.33 1014.78 1014.44 1014.08 1013.27 1012.57 1011.97 1011.61 1011.21 1010.86 1010.44 1009.91 1009.35 1008.84 1008.24 1007.89 1007.60 1007.34 1006.84 1006.65 1006.59 1006.39 1006.38 1006.28 1006.83 1007.04 1008.06 1008.25 1008.81 1010.58 1012.55 1013.92 1014.43 1014.83 1015.16 1016.25 1016.92 1017.04 1017.23 1016.92 1017.06 1017.48
1015.49 1014.91 1014.41 1014.04 1013.80 1013.14 1012.47 1011.90 1011.43 1011.03 1010.60 1010.16 1009.37 1009.02 1008.58 1008.07 1007.51 1007.13 1006.90 1006.73 1006.47 1006.02 1005.99 1005.83 1005.73 1006.18 1006.76 1007.62 1008.40 1008.82 1009.99 1012.40 1013.29 1013.73 1014.05 1013.72 1015.74 1016.81 1017.05 1017.34 1017.30 1017.14 1017.36
1015.36 1014.85 1014.40 1013.86 1013.37 1012.86 1012.29 1011.85 1011.49 1011.21 1010.72 1009.91 1009.22 1008.53 1008.18 1007.84 1007.32 1006.76 1006.36 1006.28 1005.96 1006.02 1005.95 1005.84 1005.67 1005.86 1006.13 1007.06 1007.41 1007.74 1008.61 1010.75 1011.67 1013.29 1012.85 1012.99 1014.86 1015.81 1017.21 1017.19 1017.40 1017.50 1017.46
Wind_Speed
4 4 4 3 3 4 5 5 4 4 4 5 4 5 5 6 6 3 3 8 11 12 12 12 12 11 10 9 9 9 9 9 8 8 7 6 5 4 3 3 3 4 5
4 3 3 6 5 4 5 6 6 4 3 3 4 5 6 5 6 5 4 5 11 12 12 13 13 13 12 11 11 11 11 12 12 11 9 8 7 6 4 4 4 5 5
5 6 4 4 3 5 6 5 4 4 2 3 5 5 5 6 5 6 5 4 5 11 11 14 14 13 13 13 11 11 10 10 11 11 12 11 10 8 6 6 5 6 7
6 5 5 5 5 3 4 3 4 4 4 4 4 4 4 5 6 6 5 5 5 4 8 12 12 12 12 12 12 11 8 6 7 9 11 12 11 9 5 3 2 4 6
7 7 6 5 7 6 6 4 3 4 4 4 5 4 4 5 5 5 6 6 7 6 5 8 11 10 10 9 10 10 10 9 5 5 8 9 7 6 5 5 5 5 5
8 8 4 5 5 5 5 6 7 4 3 5 5 5 4 5 4 5 6 6 6 7 7 7 5 6 11 9 9 9 9 10 9 7 7 9 9 8 7 5 4 5 6
6 6 6 5 6 8 10 9 8 8 4 4 2 4 5 6 6 7 6 6 6 6 6 5 5 4 4 10 9 9 8 8 8 8 10 11 10 9 7 6 4 4 4
7 6 8 7 10 9 9 8 9 6 7 7 5 1 3 3 5 8 6 7 8 5 6 6 6 7 5 4 6 8 8 7 6 6 10 11 10 10 9 6 4 2 3
7 9 8 7 6 7 10 11 11 14 10 6 12 6 3 4 1 2 8 7 6 5 5 5 6 6 6 5 6 6 7 6 8 10 11 12 12 11 10 7 4 3 4
7 7 9 9 9 7 10 9 10 12 11 8 2 5 1 3 4 2 2 3 3 6 6 5 7 6 6 4 5 8 9 6 4 11 13 13 14 13 12 9 6 3 6
6 8 8 9 10 9 12 13 10 10 9 7 5 3 2 2 2 3 3 3 1 4 3 4 6 6 5 6 7 5 9 12 8 8 12 14 15 15 13 8 5 4 5
6 9 11 9 9 10 14 14 13 14 12 9 4 5 6 8 7 4 3 3 5 3 4 4 5 5 5 4 4 7 10 8 9 11 11 9 12 15 12 7 5 4 5
7 9 9 11 10 11 9 10 10 10 10 9 9 7 5 5 2 4 3 4 4 3 4 3 4 6 6 5 5 7 9 7 8 9 10 11 15 13 10 6 5 6 5
6 7 8 10 10 10 9 8 6 6 6 6 9 8 6 7 5 4 4 4 3 4 3 5 3 5 6 7 8 9 5 10 7 9 9 17 15 13 10 7 6 6 6
8 11 8 5 6 7 9 10 8 8 9 8 7 7 6 5 5 7 5 6 7 8 9 5 4 3 5 6 7 5 4 9 9 10 15 15 14 13 11 8 9 9 6
10 10 11 10 9 7 5 4 4 8 10 9 7 9 8 7 8 6 7 7 8 11 15 4 5 3 8 6 8 5 6 8 12 14 14 13 12 12 11 10 10 9 5
9 10 9 10 10 9 9 8 5 5 7 8 8 9 9 8 7 7 7 8 9 7 9 1 1 2 2 9 7 5 6 5 5 13 12 13 13 12 11 10 9 9 6
10 10 10 9 10 10 9 8 8 10 7 8 9 9 11 7 11 10 8 11 9 8 5 5 2 3 3 9 9 9 6 5 4 9 12 11 11 11 11 11 9 8 7
8 9 9 9 9 10 9 9 9 9 8 8 7 8 11 11 13 8 8 8 7 5 5 4 4 2 2 5 5 4 6 4 3 8 11 12 11 11 10 11 11 9 8
8 9 8 8 9 9 8 10 9 9 8 8 8 7 8 8 11 10 9 11 9 8 8 5 4 5 3 4 5 7 5 2 4 3 6 7 9 11 11 12 12 11 8
8 9 9 8 8 7 7 10 10 10 9 9 8 8 7 8 11 10 6 9 9 9 7 8 4 3 5 6 13 7 7 5 5 4 4 4 3 3 4 8 11 12 9
6 6 7 6 7 6 16 18 14 9 9 8 8 9 8 8 8 11 12 12 9 10 9 8 8 10 11 8 7 9 5 4 5 5 4 3 4 4 3 3 11 11 9
7 7 7 7 9 8 18 19 18 10 10 10 8 8 8 6 9 8 10 12 13 14 12 12 12 11 10 13 13 12 6 4 4 3 4 3 3 3 3 5 14 12 10
5 5 5 5 6 8 19 20 21 8 10 11 9 9 9 9 8 8 8 8 9 9 11 8 11 11 9 12 17 12 11 7 4 2 2 4 3 2 2 2 11 13 11
6 5 6 7 6 7 17 18 16 9 9 12 13 9 9 10 13 14 8 9 9 7 5 11 11 12 14 20 12 9 10 9 3 4 5 5 3 3 2 2 3 11 11
6 5 6 6 11 8 16 17 15 6 8 8 10 11 14 16 19 19 9 9 9 7 5 3 4 9 15 17 24 13 13 11 4 3 6 6 4 5 2 1 2 2 1
Wind_Direction
179 175 180 181 161 148 155 165 172 179 195 203 219 210 209 215 225 230 232 234 232 237 242 227 223 226 224 224 229 225 231 233 235 231 222 219 217 237 273 296 322 333 343
173 205 202 207 167 178 163 161 173 180 217 206 234 230 228 223 225 227 223 228 234 232 238 240 235 233 235 235 235 243 235 237 235 229 228 229 229 233 250 275 295 309 314
186 184 175 189 197 179 176 167 161 147 190 250 244 242 238 234 234 233 224 224 231 230 231 236 242 240 240 248 250 253 258 244 244 238 225 224 224 229 240 261 276 300 312
192 191 188 189 174 177 175 205 180 183 181 210 252 241 247 245 234 230 223 219 218 223 228 234 238 245 246 249 259 265 271 279 246 241 229 224 222 222 242 296 338 342 352
200 200 209 200 184 176 196 168 224 219 161 220 244 252 240 245 235 236 225 221 220 217 211 217 224 238 246 254 263 271 274 274 252 252 239 221 211 178 165 133 96 73 40
204 202 194 205 187 196 211 187 201 220 188 219 239 249 245 242 229 231 233 228 220 213 208 210 209 222 223 226 241 247 260 270 258 234 229 197 177 164 148 128 98 63 34
196 201 213 210 194 195 205 206 208 200 215 192 172 267 254 233 235 230 225 228 228 218 210 210 204 204 208 213 207 211 229 253 259 241 216 184 174 161 154 134 109 71 36
194 211 207 208 203 208 225 210 208 211 216 193 183 174 282 280 232 230 213 221 223 207 208 207 201 195 187 175 187 196 220 234 234 196 174 178 172 167 153 147 130 102 20
203 213 214 213 215 229 216 214 207 214 223 190 205 159 172 233 284 188 223 219 208 200 209 197 189 177 180 180 186 194 197 224 225 195 185 175 177 169 161 157 145 76 28
221 210 213 215 217 215 228 225 214 212 215 195 180 245 207 158 196 292 253 254 227 208 195 191 178 176 184 183 192 192 181 216 223 200 184 186 186 180 176 166 149 110 48
229 236 224 221 223 220 226 222 212 212 215 210 183 153 172 196 174 204 246 245 277 228 225 186 171 182 178 189 194 194 200 182 192 219 204 193 198 191 169 161 150 118 69
244 224 221 221 229 238 230 213 211 213 214 212 191 225 195 203 208 182 223 220 224 246 211 205 194 195 181 169 192 194 197 193 203 206 199 220 196 172 153 156 149 125 66
251 247 232 232 229 230 219 212 197 196 199 201 201 212 214 213 192 202 209 229 223 235 246 242 202 177 159 173 182 193 186 174 191 189 199 178 147 135 133 134 141 106 94
326 290 248 238 229 225 216 199 182 186 184 202 207 212 216 220 211 209 214 192 239 229 213 238 217 192 174 169 177 178 172 163 165 179 190 136 139 130 131 132 119 108 84
2 4 347 322 338 252 225 217 212 181 180 187 207 201 199 208 215 225 217 223 227 262 251 222 214 208 160 159 173 158 146 161 156 152 135 145 133 130 133 140 131 111 119
8 2 1 348 10 334 284 280 261 205 201 203 193 203 214 218 217 226 222 227 224 238 259 173 199 184 170 153 149 144 144 140 143 149 146 143 135 141 146 154 137 128 123
9 13 358 348 356 349 352 330 252 236 229 225 214 217 227 220 225 226 214 221 224 226 249 18 84 147 149 156 141 139 138 138 157 170 158 159 155 152 156 145 145 139 144
3 1 2 358 358 353 348 346 349 340 259 233 225 221 231 219 228 233 216 217 214 212 193 167 153 153 162 167 157 157 164 148 165 171 172 166 165 165 164 160 151 153 143
3 360 0 1 355 345 348 356 347 340 335 338 309 246 235 224 229 224 218 219 204 185 188 144 146 155 112 163 153 142 161 141 152 196 183 181 177 174 167 163 170 167 164
359 2 356 352 353 342 351 356 347 342 338 331 324 316 308 294 243 215 224 221 206 188 188 177 158 157 142 162 158 166 171 153 157 189 203 188 184 174 184 184 177 179 172
351 348 347 347 353 344 347 352 348 337 330 326 322 314 307 299 298 298 260 225 218 222 193 189 160 146 171 165 185 165 185 159 185 166 186 191 162 159 174 205 170 178 176
341 340 347 335 327 340 338 343 342 329 321 314 313 312 308 301 293 288 282 269 254 216 207 202 181 186 185 182 180 176 138 141 203 192 166 187 173 173 164 189 179 179 181
330 331 333 341 333 329 336 336 335 323 320 309 302 301 299 297 299 294 289 278 260 239 221 199 201 202 184 186 170 170 161 148 182 190 135 162 170 194 170 200 191 185 185
304 307 303 304 313 322 333 333 330 320 314 306 293 292 288 285 282 286 286 278 269 252 232 219 216 210 197 176 174 173 164 145 82 111 203 146 132 178 147 192 202 190 187
308 306 306 308 308 305 324 329 329 323 313 308 308 294 288 283 278 275 266 267 271 245 262 215 193 172 163 173 167 139 142 168 172 190 216 121 141 127 148 189 234 194 193
258 273 290 294 305 313 314 319 322 307 303 308 310 306 302 305 293 285 261 255 257 251 209 204 173 175 170 176 165 183 149 177 130 181 202 122 141 143 162 175 193 247 233